Location: Newark
(50.0306°N, 2.3272°E)
Time: 12:55:08
(UTC+00:00)

Vanguard 1 Rocket - Pass Details

Date: 18 December 2019
Orbit: 650 x 4226 km, 34.3° (Epoch: 19 January)

Event Time Altitude Azimuth Distance (km) Brightness Sun altitude
Rises 16:23:58 0° 202° (SSW) 8,380 13.2 -5.4°
Reaches altitude 10° 16:31:31 10° 191° (S) 7,423 12.6 -6.5°
Maximum altitude 16:49:39 26° 146° (SE) 5,594 11.3 -9.1°
Drops below altitude 10° 17:03:38 10° 99° (E) 5,754 11.0 -11.1°
Enters shadow 17:05:41 - 94° (E) 5,953 11.0 -11.4°
Sets 17:08:18 0° 88° (E) 6,270 - -11.8°
